EHI
7 4 1 0 0 0 0 0 0 0 0 0 0 0 0 0 0 0 0 0 2 4 7 13 17 17 17 16 16 15 14 11 8 6 5 3 3 3 2 1 0 1 4 4 2 0 1 3 4
5 3 1 0 0 0 0 0 0 0 0 0 0 0 0 0 0 0 0 0 2 5 8 14 18 18 19 19 18 17 15 13 10 7 4 2 2 1 1 0 0 1 3 4 2 0 1 3 5
2 2 1 0 0 0 0 0 0 0 0 0 1 1 1 0 0 0 0 0 2 5 8 14 18 19 19 20 20 18 17 15 12 8 5 3 2 1 0 0 0 1 2 3 2 1 1 3 5
1 1 0 0 0 0 0 0 0 0 0 0 1 2 1 0 0 0 0 1 3 5 7 12 17 19 18 19 19 18 17 15 12 8 6 4 3 2 0 0 0 1 2 3 3 2 2 2 3
1 1 1 0 0 0 0 0 0 1 1 2 2 3 2 0 0 0 0 1 2 5 7 11 15 17 18 17 17 17 17 14 10 7 5 4 3 1 0 1 1 1 2 2 2 2 2 1 2
1 1 1 0 0 0 0 0 0 1 2 3 3 2 1 0 0 0 0 0 2 5 7 9 12 16 17 16 15 15 15 11 7 5 4 3 2 1 0 1 2 1 1 1 1 1 1 0 1
0 0 0 0 0 0 0 1 1 1 1 3 3 1 0 0 0 0 0 0 1 3 5 7 9 13 13 12 12 12 11 9 7 4 3 3 3 1 0 1 2 2 1 0 1 2 1 0 0
0 0 0 0 0 0 1 1 1 0 1 3 3 1 0 1 1 1 0 0 0 1 3 4 6 8 8 7 8 8 7 6 6 5 4 4 3 2 0 0 1 1 1 0 1 2 1 0 0
0 0 0 0 0 0 1 2 1 1 2 3 3 2 2 3 3 2 1 1 1 1 2 4 5 6 5 5 5 4 4 3 4 4 4 3 2 1 0 0 0 0 0 0 0 1 0 0 0
0 0 0 0 0 0 1 2 3 2 3 3 3 3 5 6 6 4 3 3 3 3 4 5 6 6 6 5 5 4 2 1 1 1 1 2 2 1 0 0 0 1 1 0 0 1 1 0 0
0 0 0 0 0 0 1 2 3 3 2 2 3 6 9 10 9 6 4 3 3 4 5 6 7 7 5 4 4 4 2 1 0 0 0 1 2 1 0 0 0 1 1 1 1 2 1 0 0
0 0 0 0 0 0 0 1 3 2 1 2 4 8 10 11 9 7 3 2 3 5 6 6 6 6 4 3 2 2 2 1 0 1 0 0 0 0 0 0 0 1 1 1 2 2 1 0 0
0 0 0 0 0 0 0 1 2 2 2 3 6 8 10 10 9 6 3 1 3 5 5 5 6 5 4 3 1 0 0 0 0 0 0 0 0 0 0 0 1 1 0 0 1 1 1 0 0
0 0 0 0 0 0 0 0 1 2 3 4 6 9 10 10 9 6 3 1 2 3 4 4 5 4 3 2 1 0 0 0 0 0 0 0 0 0 0 0 1 1 0 0 0 0 0 0 0
0 0 0 0 0 0 0 0 1 4 5 6 7 8 10 10 8 6 3 2 2 3 3 3 3 2 1 1 0 0 0 0 0 0 0 0 0 0 0 0 1 1 0 0 0 0 0 0 0
0 0 0 0 0 0 0 0 1 5 7 7 8 9 9 9 7 7 6 4 3 3 3 3 2 1 0 0 0 0 0 0 0 0 0 0 0 0 0 0 0 0 0 0 0 0 0 0 0
0 0 0 0 0 0 0 0 1 4 6 7 9 9 7 5 6 7 7 6 4 3 4 4 3 1 0 0 0 0 0 0 0 0 0 0 0 0 0 0 0 0 0 0 0 0 0 0 0
0 0 0 0 0 0 0 0 1 3 5 6 7 6 3 2 3 5 5 4 3 4 6 7 6 4 2 2 1 0 0 0 0 0 0 0 0 0 0 0 0 0 0 0 0 0 0 0 0
0 0 0 0 0 0 0 0 1 3 4 4 4 4 1 0 1 2 3 3 3 5 8 10 10 7 4 3 3 1 1 2 1 1 1 0 0 0 0 0 0 0 0 0 0 0 0 0 0
0 0 0 0 0 0 0 0 1 3 3 3 3 3 1 0 2 4 5 4 4 6 9 11 11 8 6 6 5 3 3 3 3 3 2 1 1 0 0 0 0 0 0 0 0 0 0 0 0
0 0 0 0 0 0 0 0 0 2 3 3 3 2 1 1 3 5 6 6 6 7 9 10 9 8 8 8 7 5 4 5 6 5 4 3 3 2 1 1 0 0 0 0 0 0 0 0 0
0 0 0 0 0 0 0 0 0 1 3 4 3 2 1 2 4 6 7 6 6 6 7 8 7 7 7 8 8 7 6 6 7 7 6 5 5 4 3 2 1 1 0 0 0 0 0 0 0
0 0 0 0 0 0 0 0 0 1 2 3 3 2 2 3 6 8 8 7 6 6 6 6 6 5 6 8 9 8 8 7 7 7 7 6 4 3 3 2 2 2 1 0 1 1 2 1 1
0 0 0 0 0 0 0 0 0 0 1 1 3 3 3 5 9 9 8 8 8 7 6 5 5 5 6 8 9 9 9 8 7 7 7 6 4 3 2 2 2 3 2 2 2 3 3 3 2
0 0 0 0 0 0 0 0 0 0 0 1 2 4 5 7 9 9 9 10 9 8 6 4 5 6 8 10 12 12 11 10 9 8 7 6 4 3 3 3 3 3 3 3 2 2 2 2 2
0 0 0 0 0 0 0 0 0 0 1 2 3 4 5 6 7 8 10 11 9 7 5 3 3 5 8 11 13 13 12 11 10 9 8 6 4 3 3 3 3 3 3 2 2 1 1 1 1
0 0 0 0 0 0 0 0 0 2 3 4 4 5 5 5 4 6 9 9 8 6 4 3 3 5 7 9 11 12 13 12 11 10 8 6 4 3 3 3 3 3 3 2 1 1 1 1 1
0 0 0 0 0 0 0 0 0 2 4 5 5 5 4 3 3 4 6 6 6 4 2 3 6 7 7 7 8 10 12 12 12 10 8 6 5 3 1 1 2 2 2 1 0 1 2 2 2
0 0 0 0 0 0 0 0 0 1 3 4 5 4 2 1 2 4 5 5 3 2 1 3 6 9 9 8 8 9 11 12 13 11 7 5 4 2 1 1 2 1 1 0 0 1 2 2 1
0 0 0 0 0 0 0 0 0 0 1 3 4 4 1 1 3 6 6 4 1 0 1 3 6 9 9 9 9 9 10 12 13 11 7 4 3 1 1 2 3 1 0 1 1 1 1 1 0
Wind_Speed
6 5 2 1 2 3 2 3 1 1 2 2 3 4 5 3 1 1 1 3 4 4 4 6 8 8 7 7 7 7 8 8 9 9 9 9 10 12 12 11 11 11 11 11 11 10 9 9 8
5 4 1 1 3 2 3 3 1 1 2 3 4 4 4 3 1 2 1 2 4 5 4 5 8 8 7 7 7 7 7 8 8 9 9 9 10 11 11 11 11 10 10 10 10 9 8 8 7
6 3 1 2 2 2 2 2 0 2 2 2 3 4 3 1 1 2 2 4 4 4 3 4 8 8 7 7 7 7 7 7 8 9 9 9 10 11 10 10 10 10 10 9 9 8 8 7 7
3 1 1 3 1 3 3 2 1 2 1 3 3 4 2 1 1 2 4 6 5 3 3 4 7 7 6 6 6 6 7 7 7 8 9 9 9 10 10 9 9 8 8 9 8 8 7 6 6
1 2 3 2 3 2 2 2 2 1 1 2 3 3 2 3 4 5 5 6 5 3 2 3 6 6 6 5 5 5 5 6 7 7 8 8 8 9 9 8 8 8 8 8 8 7 7 7 6
2 3 3 2 3 2 1 1 2 2 2 2 3 3 1 1 4 4 5 5 4 3 2 2 4 5 5 4 4 4 5 5 6 7 8 8 8 8 8 8 8 7 7 7 7 7 7 6 6
2 2 1 2 2 2 1 2 2 2 2 2 4 4 0 1 2 5 5 4 3 3 3 2 1 2 3 3 3 3 4 5 5 6 6 7 7 7 7 7 7 7 6 6 6 6 6 5 5
3 3 1 1 1 2 1 1 1 3 2 3 4 5 4 3 5 6 5 4 3 3 2 2 2 2 1 0 1 2 3 4 5 5 5 6 6 6 5 5 5 6 5 5 6 5 5 5 4
2 3 1 3 3 2 1 2 1 2 4 2 2 3 4 8 8 7 5 3 2 2 1 1 1 1 1 0 1 2 3 3 4 3 4 4 2 2 2 3 4 5 4 4 5 5 5 4 4
3 1 5 4 4 3 1 2 3 2 2 1 3 4 8 9 8 7 5 4 3 2 1 1 1 1 1 1 1 2 2 2 2 1 2 2 2 1 2 2 4 4 3 3 4 5 4 3 1
3 4 4 3 4 3 2 2 2 5 2 4 6 8 10 9 7 6 6 5 4 3 2 2 2 1 1 1 1 1 1 1 1 1 2 2 2 1 1 1 1 1 2 1 2 2 2 1 1
3 5 4 3 2 2 3 3 3 4 5 4 8 10 10 9 8 7 6 5 3 3 3 2 2 2 1 1 1 1 1 1 1 1 1 2 1 1 1 1 1 1 1 1 1 1 1 1 1
3 3 3 2 1 2 3 3 3 2 2 6 9 9 10 9 7 5 5 4 4 4 3 3 3 2 2 1 1 1 1 1 1 1 1 2 2 1 1 1 1 1 1 1 1 1 1 1 1
2 2 3 2 1 1 3 1 2 2 5 8 8 8 8 8 7 5 4 4 4 4 4 3 4 3 2 2 1 1 1 1 1 1 1 2 2 2 1 1 1 0 1 1 1 2 2 1 1
2 3 5 2 1 1 4 2 2 3 7 7 7 6 6 5 6 7 6 6 5 4 4 4 4 3 3 2 2 1 1 1 1 1 1 2 2 2 2 1 1 1 1 1 1 1 1 1 1
3 4 3 4 1 1 4 3 4 5 7 7 6 5 5 4 5 5 5 5 5 4 4 4 4 4 3 2 2 1 1 1 1 1 1 2 2 3 2 1 1 1 1 1 1 1 1 0 0
4 2 3 4 1 1 2 4 3 5 7 6 6 5 5 4 4 4 5 5 5 5 5 4 3 4 3 3 2 1 1 1 1 1 1 2 2 3 2 2 1 1 1 1 1 1 1 1 0
2 2 3 4 3 0 1 4 2 5 6 6 5 5 5 6 6 4 4 5 5 4 4 4 3 3 3 2 2 1 1 0 0 1 1 2 2 2 2 2 1 2 1 1 1 1 1 1 1
3 2 4 6 3 0 2 4 4 5 5 5 5 5 6 6 4 3 4 4 4 4 4 4 4 3 3 2 2 1 1 0 0 1 1 2 2 2 2 1 1 2 2 2 2 1 1 0 0
3 2 4 5 2 1 2 4 2 5 7 7 7 6 6 4 3 4 4 4 5 5 5 5 5 4 4 3 2 2 1 1 1 1 0 1 2 2 2 2 2 2 2 1 1 1 1 0 1
3 4 4 4 4 3 1 5 2 1 2 3 4 5 5 7 7 6 5 5 5 6 6 6 5 4 4 3 2 2 2 1 1 0 0 1 1 2 2 2 2 2 2 2 2 2 2 2 1
4 5 4 2 1 3 1 3 6 2 2 3 4 5 6 6 6 6 6 5 6 7 6 5 5 4 3 4 3 4 3 2 2 1 1 1 1 1 2 2 3 3 2 2 3 3 2 3 2
5 1 2 0 1 1 2 1 8 1 3 6 7 7 6 6 7 7 8 8 6 5 5 5 4 4 3 4 4 4 3 2 1 0 1 1 1 1 1 1 2 2 2 3 2 2 2 3 2
3 5 5 5 4 1 2 3 7 4 6 5 6 6 6 6 6 6 5 5 4 4 4 4 4 4 4 5 5 5 4 3 2 1 1 1 1 1 1 1 2 2 2 2 2 3 3 3 2
4 6 4 5 4 5 2 2 9 6 5 6 6 7 6 6 7 7 6 6 5 5 5 5 6 5 4 5 5 5 5 4 4 3 3 2 1 1 2 2 2 2 2 3 2 2 3 3 3
4 8 7 5 5 5 2 5 7 4 4 3 4 5 5 6 7 8 8 7 6 6 5 5 6 5 4 5 5 4 4 3 3 3 3 3 2 2 2 2 2 2 2 3 2 2 3 2 3
6 4 6 7 2 2 5 6 7 2 2 2 3 4 5 6 6 7 7 7 6 6 5 6 6 5 5 4 4 4 3 3 3 2 2 1 1 1 1 2 2 2 2 2 2 2 3 2 2
4 8 6 6 5 3 5 4 5 5 5 3 3 4 4 4 5 5 6 6 5 5 4 4 5 6 5 4 4 4 3 3 3 2 1 1 1 1 1 2 2 2 2 2 2 2 2 1 2
3 4 5 4 5 6 3 7 6 7 5 4 4 3 4 5 5 4 5 5 5 4 4 4 4 4 4 4 3 3 3 3 3 2 3 2 2 1 1 2 2 2 2 1 2 2 1 2 2
4 6 7 5 3 4 4 9 5 4 4 3 3 2 3 4 4 4 4 4 4 5 4 4 4 4 4 4 3 3 2 2 2 2 2 2 2 1 1 1 1 2 2 2 2 2 2 2 2
Wind_Direction
160 147 143 147 49 40 323 301 295 8 34 37 73 84 99 98 142 191 252 151 150 151 165 173 168 157 150 147 146 140 133 131 133 133 133 136 143 147 146 146 146 146 146 149 153 155 155 151 148
152 151 168 54 66 33 308 302 6 4 145 131 79 72 73 65 59 106 126 158 142 145 154 166 166 157 151 148 145 141 137 132 132 132 132 132 138 141 142 143 144 145 147 148 150 152 149 146 146
165 186 99 59 74 184 261 291 105 75 127 93 74 61 75 84 106 154 192 145 129 136 147 168 164 157 153 151 148 144 140 136 135 136 136 135 134 136 139 141 142 144 146 146 147 148 146 147 148
159 141 53 53 346 244 218 244 142 120 53 50 88 69 52 42 144 144 129 125 124 133 146 163 160 156 156 156 152 150 146 142 139 137 139 139 139 140 141 142 143 147 149 149 148 147 146 145 142
109 81 46 13 306 288 237 191 151 137 86 60 87 89 32 2 87 109 114 118 120 114 120 147 157 156 156 155 155 154 145 144 143 141 142 142 143 144 144 144 146 147 150 148 144 143 142 143 139
69 65 58 335 308 313 289 147 129 117 98 93 101 102 37 37 97 113 116 115 116 114 111 125 152 156 161 161 158 154 146 147 148 147 145 146 147 148 148 146 149 149 148 146 143 143 141 141 141
103 88 132 260 295 309 233 131 133 131 125 153 135 112 103 120 121 112 106 100 93 93 93 88 114 134 143 157 161 164 157 150 150 151 151 150 149 147 147 148 152 154 156 156 152 150 149 147 146
145 100 354 271 264 278 193 104 132 140 144 134 129 141 186 184 129 104 92 85 85 81 79 73 57 63 73 136 171 155 154 154 153 148 148 151 150 149 153 153 155 158 163 167 167 166 162 156 156
121 66 285 236 216 256 177 117 70 96 109 111 126 160 161 136 122 111 102 85 93 102 73 79 76 63 65 83 120 90 122 145 144 146 149 143 127 136 153 161 163 163 164 169 174 175 170 165 168
110 146 240 224 197 202 207 159 158 109 96 91 77 95 123 132 135 137 145 153 164 176 172 137 125 108 77 115 72 57 83 94 101 102 122 118 113 125 142 162 169 163 161 162 158 161 161 158 143
165 209 251 259 211 178 164 157 137 133 202 206 173 150 145 144 147 154 165 171 181 180 180 174 163 138 114 88 91 76 81 88 88 102 104 106 104 103 107 121 169 151 149 126 125 135 129 132 147
203 247 244 266 175 158 168 150 133 177 216 187 158 151 152 157 167 173 177 181 175 169 184 176 165 148 146 130 107 103 96 95 104 119 117 113 111 103 105 112 102 99 113 127 121 126 131 148 171
225 275 274 229 177 164 138 144 150 206 162 124 132 145 159 169 177 181 177 173 171 181 188 178 159 157 150 141 147 132 153 155 143 110 121 129 132 127 110 104 102 111 122 143 141 143 151 159 176
270 296 317 330 81 132 122 109 116 201 133 129 143 160 171 177 179 178 177 176 180 185 179 169 164 165 151 154 159 154 158 147 109 119 143 136 136 131 123 117 123 143 156 157 153 154 157 169 183
331 359 356 0 55 112 103 18 235 170 136 142 158 167 173 185 183 188 189 186 186 183 173 169 169 158 155 165 166 145 137 128 148 175 155 151 152 148 145 141 166 192 162 149 130 121 125 151 181
21 30 346 307 23 93 114 254 249 155 150 159 167 171 178 194 199 196 188 186 183 171 170 178 170 156 159 160 152 139 133 141 176 172 155 169 167 158 151 161 195 176 142 140 142 140 128 148 175
23 7 297 303 292 134 150 253 254 167 164 173 178 180 183 193 211 205 191 189 182 175 173 173 169 160 165 159 140 133 123 142 165 154 164 182 178 166 157 178 194 160 139 148 172 138 154 180 220
249 272 288 286 289 3 256 264 245 181 177 188 187 185 188 201 214 200 189 187 180 173 169 170 166 161 153 137 110 90 74 60 108 159 183 185 187 176 161 171 173 154 149 162 167 163 155 183 224
186 222 272 274 276 249 258 271 241 193 192 201 201 198 202 213 208 175 180 176 169 171 170 173 171 171 154 143 142 142 178 168 153 205 200 192 186 172 161 175 168 164 176 190 179 167 165 185 144
188 237 273 297 334 155 274 280 252 191 200 202 200 202 203 198 179 182 181 181 183 185 185 183 186 179 172 167 158 150 151 176 180 199 188 196 183 178 177 178 179 180 181 179 174 163 160 176 129
224 203 231 265 331 19 27 321 299 239 198 201 204 199 190 190 190 189 185 192 192 194 193 195 195 186 180 164 123 101 75 45 49 26 252 242 198 192 188 182 179 181 181 194 197 182 175 187 183
256 224 198 234 11 317 52 290 290 262 228 219 223 208 203 200 191 188 183 187 201 206 195 192 189 186 176 157 154 157 166 190 218 212 219 249 232 219 198 183 181 189 191 196 205 188 186 177 196
214 153 138 185 157 331 359 184 286 322 247 240 228 215 210 200 192 193 193 194 196 194 187 188 183 179 167 167 174 176 192 209 219 194 219 261 264 239 220 186 180 195 197 200 205 192 191 190 195
145 61 51 49 70 320 246 176 275 243 225 238 223 211 205 195 191 191 189 183 187 176 175 174 175 187 180 179 182 189 199 206 202 216 225 252 269 256 245 217 203 206 209 210 205 201 202 205 200
97 86 27 356 6 258 268 198 250 253 230 220 210 206 197 189 185 181 175 176 183 184 188 185 181 191 189 184 188 196 203 205 207 209 217 224 237 245 251 238 225 222 224 222 207 195 205 204 200
169 142 159 198 228 277 310 239 255 263 252 237 206 191 188 184 182 181 181 178 184 190 188 185 187 193 189 190 195 201 201 202 208 206 212 224 233 241 248 240 240 239 235 227 206 207 215 201 207
145 175 163 136 160 281 283 288 300 287 283 238 195 178 188 187 186 184 183 179 181 184 187 190 187 193 194 195 192 194 197 198 202 204 211 229 244 243 243 241 240 241 234 231 209 217 226 209 212
135 143 107 122 150 247 288 279 256 269 261 256 212 191 193 184 180 179 181 182 182 184 184 176 182 192 195 187 190 193 192 198 194 180 211 233 251 262 248 238 237 241 239 234 215 231 234 210 223
116 100 107 116 151 160 242 269 234 226 230 222 221 202 191 181 180 178 180 180 173 165 166 168 177 183 186 185 186 188 188 191 189 196 214 221 232 236 248 243 237 240 243 236 219 224 212 209 229
157 159 146 149 206 177 182 263 277 229 224 205 205 203 190 177 176 177 174 170 167 169 172 176 180 187 190 181 169 185 186 178 190 205 219 215 222 232 239 233 240 241 234 220 217 226 217 212 224